Location: Nairn
(57.5833°N, 3.8667°W)
Time: 01:47:05
(UTC+00:00)

Transit 2A - Pass Details

Date: 27 November 2020
Orbit: 598 x 960 km, 66.7° (Epoch: 20 January)

Event Time Altitude Azimuth Distance (km) Brightness Sun altitude
Rises 21:43:23 0° 276° (W) 3,566 10.0 -45.7°
Reaches altitude 10° 21:46:14 10° 285° (WNW) 2,581 9.2 -46.0°
Enters shadow 21:46:50 13° 288° (WNW) 2,389 9.0 -46.1°
